Tracking 18852 objects as of 24-Nov-2017
HD Live streaming from Space Station
objects crossing your sky now

TELSTAR 12 (ORION 2)

Track TELSTAR 12 (ORION 2) now!
TELSTAR 12 (ORION 2) is classified as:


NORAD ID: 25949
Int'l Code: 1999-059A
Perigee: 35,781.4 km
Apogee: 35,805.1 km
Inclination: 1.3 °
Period: 1,436.1 minutes
Semi major axis: 42164 km
RCS: 31.4284 m2 (large)
Launch date: October 19, 1999
Source: United States (US)
Launch site: FRENCH GUIANA (FRGUI)

Voice and video communications to the Americas, Europe, and Africa
aabbcc
Your satellite tracking list
Your tracking list is empty




NASA's NSSDC Master Catalog

Two Line Element Set (TLE):
1 25949U 99059A   17327.84771515 -.00000056  00000-0  00000+0 0  9990
2 25949   1.2693  88.1513 0002815 155.1442  15.7204  1.00273508 66160
Source of the keplerian elements: AFSPC